Volver al catálogo

USA 371

ActivoMilitarVLEO
NORAD 59831·PAYLOAD·🇺🇸 United States

Lanzado May 22, 2024 desde Vandenberg Space Force Base

Loading…

Próximos Pases (próximas 24 horas)

TLE

ObsoletoSource: Mike McCants

Época: Aug 25, 2026, 20:13 UTC

1 59831U 24096T   26237.84295130 0.00000000  00000-0  00000-0 0    02
2 59831  70.0232 137.0379 0003004 127.9261 232.0738 14.96713072    02

Sigue USA 371 en tiempo real con AllMySat

Download on the App Store